Location: ?????????
(38.5999°N, 22.7695°E)
Time: 15:50:21
(UTC+00:00)

Cosmos 1674 Rocket - Pass Details

Date: 23 May 2024
Orbit: 598 x 627 km, 82.5° (Epoch: 24 June)

Event Time Altitude Azimuth Distance (km) Brightness Sun altitude
Exits shadow 01:15:35 24° 168° (SSE) 1,306 4.9 -18.6°
Maximum altitude 01:18:09 63° 94° (E) 704 3.9 -18.3°
Drops below altitude 10° 01:22:33 10° 14° (NNE) 2,006 7.1 -17.7°
Sets 01:24:48 0° 11° (NNE) 2,914 8.0 -17.4°
